Dewpoint
-22 -18 -16 -8 -6 -2 2 4 5 7 7 9 9 6 7 9 8 10 13 12 10 11 10 10 10 11 11 11 12 11 12 11 10 10 10 11 11 12 11 11 11 10 8 7 6 8 10 10 8
-21 -20 -11 -9 -3 0 2 2 5 6 8 8 8 7 5 8 11 13 13 10 9 8 9 8 8 8 9 10 10 11 11 12 11 11 10 9 9 9 10 8 8 8 7 7 8 9 11 10 9
-21 -15 -11 -7 -5 -2 -0 1 6 7 8 8 7 8 8 8 11 12 12 7 4 4 8 5 6 6 4 3 4 7 8 7 7 7 8 11 11 11 10 9 9 9 9 8 9 11 10 9 8
-11 -10 -6 -7 -4 -1 0 4 6 6 7 7 5 6 10 12 11 11 12 10 8 7 9 1 -1 -3 -3 -2 -2 -3 -3 -2 -0 1 2 4 6 9 10 10 10 10 10 11 10 10 9 8 9
-14 -8 -6 -5 -1 1 2 4 5 4 5 6 6 7 9 12 13 12 12 11 8 4 -0 -2 -3 -3 -3 -3 -3 -2 -1 -1 0 1 1 1 1 1 1 1 0 2 3 4 3 4 5 7 9
-10 -6 -4 -2 1 2 3 4 3 1 3 5 4 4 9 12 12 12 11 9 7 4 -1 -2 -1 -2 -3 -3 -3 -3 -2 0 1 1 2 2 2 2 2 3 3 3 4 4 3 3 2 1 1
-10 -8 -5 -3 -2 -2 -2 0 -1 -1 1 1 3 2 9 11 11 11 10 7 6 5 6 5 0 -3 -4 -4 -4 -3 -2 0 2 3 2 2 2 2 3 3 4 4 4 4 4 5 6 6 7
-13 -12 -9 -9 -9 -9 -11 -8 -3 -4 -3 4 4 0 5 8 11 11 9 8 8 8 9 9 5 1 -3 -1 -2 -4 -4 2 3 3 2 2 2 2 3 4 3 3 2 -2 -1 4 6 6 7
-14 -13 -11 -12 -12 -11 -11 -12 -10 -2 -1 1 2 3 6 10 11 10 8 8 9 10 5 5 8 1 -1 -2 -2 -4 -5 -4 -3 -2 0 2 9 7 8 5 2 -1 -3 -5 -5 -5 -4 -3 -4
-13 -13 -12 -13 -12 -13 -12 -13 -10 -6 -6 -3 1 5 8 11 11 10 8 8 8 10 8 6 2 1 -2 -3 -2 -2 -2 7 4 5 -0 8 2 3 3 1 1 -0 -2 -5 -5 -7 -6 -5 -0
-10 -11 -11 -12 -11 -12 -12 -11 -11 -10 -9 -9 -8 1 8 10 11 10 8 6 7 9 9 10 5 0 -3 7 7 8 9 9 8 -0 2 3 1 8 8 9 8 8 1 3 -0 -4 -0 -5 -7
-10 -10 -13 -11 -9 -10 -11 -11 -10 -10 -11 -7 -4 0 6 8 8 8 7 5 7 7 8 11 7 0 -3 1 6 7 7 9 9 10 3 9 10 10 10 9 9 9 8 5 5 5 -4 -4 -5
-7 -7 -6 -7 -8 -7 -6 -8 -8 -9 -9 -7 -2 3 5 5 5 6 6 5 5 6 8 11 9 3 -3 -3 -1 -2 0 8 8 9 7 1 9 9 9 8 7 7 7 7 7 6 7 5 -0
-5 -6 -6 -6 -6 -6 -6 -7 -7 -8 -8 -6 -1 1 4 4 4 6 7 7 7 7 9 11 9 5 -2 -2 -3 -5 -4 4 2 7 6 -4 -2 7 7 6 6 5 5 5 6 5 3 3 -0
-5 -5 -6 -5 -6 -5 -7 -7 -8 -7 -8 -8 -2 0 2 4 5 5 4 6 5 7 9 9 8 8 -0 -2 -3 -3 2 -4 3 4 -4 -4 -4 -3 -3 5 4 4 5 2 1 2 1 -2 1
-7 -7 -7 -5 -5 -4 -5 -5 -7 -5 -5 -6 -6 -4 2 4 5 5 6 7 8 8 8 7 7 8 1 -2 -3 -3 1 -4 -0 -3 -2 -2 -3 -2 -2 3 4 4 3 4 5 5 4 4 2
-9 -10 -8 -6 -5 -5 -5 -6 -5 -6 -5 -4 -4 -4 -4 1 4 7 8 7 6 7 8 6 6 8 2 -2 -2 -3 -4 -4 1 -3 -1 -2 -2 -1 -2 -1 1 3 4 5 5 4 5 3 2
-8 -8 -5 -6 -6 -5 -3 -4 -6 -5 -5 -5 -5 -5 -4 -2 3 5 5 4 3 5 4 5 8 8 2 -1 -3 -3 -3 -3 -3 -1 -2 -2 -2 -1 -1 -1 -0 3 4 4 4 5 4 4 2
-7 -6 -5 -6 -4 -2 -2 -5 -5 -5 -4 -4 -4 -4 -3 -2 0 1 3 2 -1 -2 1 6 7 6 2 2 2 3 2 1 0 0 -0 -1 -0 0 0 -0 -0 0 4 4 4 4 5 5 4
-4 -4 -4 -4 -3 -1 -2 -4 -5 -5 -4 -4 -4 -3 -3 -3 -1 -1 1 -3 -2 -1 1 2 2 1 1 0 -1 -2 -2 -1 -0 1 3 3 0 -0 -1 -1 -1 2 3 4 4 5 5 4 4
-2 -2 -1 -1 -2 -2 -2 -2 -4 -5 -4 -4 -3 -3 -3 -2 -2 -1 -0 -1 -2 -2 -1 -0 -0 -1 -1 -2 1 2 2 2 1 1 1 -1 -2 -5 -6 -7 -7 -6 -3 2 3 3 4 4 4
-1 -3 0 0 0 -2 -1 -1 -2 -4 -3 -3 -1 -0 0 -1 -2 -1 0 -1 -2 -2 -2 -2 -1 -0 -0 -0 0 -1 1 1 2 2 2 0 -3 -5 -5 -4 -3 -4 -0 1 2 2 3 3 3
1 0 1 1 1 0 -0 -1 -0 -3 -1 -1 -0 1 1 0 1 0 1 2 2 -0 0 0 2 0 -0 -1 1 3 3 2 2 2 1 -0 -1 -2 -2 -1 -11 -10 -4 -1 -0 2 3 3 3
-0 0 1 1 2 4 2 1 0 -1 -0 -0 0 1 1 2 1 1 2 2 2 3 2 2 2 2 -0 -1 -1 -1 -3 -2 -1 -1 -2 -3 -4 -4 -3 -2 -7 -6 -4 -3 -3 -0 1 1 2
-0 1 2 5 5 3 1 1 3 0 -0 -0 0 1 2 2 2 2 2 2 3 3 3 2 2 2 1 0 -1 -1 -3 -2 -2 -2 -2 -2 -3 -3 -2 -3 -1 0 -0 -1 -1 -1 -1 -0 -0
2 2 5 5 3 2 2 1 2 -0 -1 -0 0 1 1 2 2 2 2 2 3 3 3 3 3 2 1 -0 -1 -7 -11 -4 -2 -1 -1 -2 -2 -2 -1 0 0 0 -0 0 -0 -1 -1 -1 -1
2 4 2 5 5 6 1 1 1 -0 0 0 0 0 1 2 2 1 2 2 3 3 3 3 2 1 1 -0 -1 -1 0 0 1 -0 -2 -3 -3 -2 -0 -0 0 -0 -1 -1 -1 -2 -2 -5 -5
1 1 5 4 10 4 -2 1 -0 2 1 0 0 1 1 2 2 2 2 2 2 2 2 2 1 1 1 1 2 1 2 1 0 -1 -3 -2 -2 -0 -0 -1 -1 -1 -2 -2 -3 -3 -2 -3 -3
2 3 3 3 5 6 5 -2 0 0 0 0 0 2 2 2 2 2 2 2 2 2 1 -0 1 1 2 2 1 1 1 1 -1 -2 -2 -1 -1 -1 -1 -2 -2 -2 -3 -4 -4 -4 -4 -4 -4
1 2 1 4 4 4 4 1 -2 -2 -0 1 1 2 2 2 1 1 2 2 0 -0 -1 0 1 0 -0 -1 -1 -0 -0 -0 -2 -2 -2 -2 -2 -2 -3 -2 -3 -4 -4 -4 -4 -4 -5 -6 -7
Wind_Speed
6 5 3 0 4 3 11 7 10 10 6 2 2 4 8 9 7 5 11 8 10 10 10 10 9 7 6 5 4 5 4 6 7 7 7 7 7 7 7 6 6 6 6 6 3 3 8 9 10
7 6 2 3 5 12 10 9 11 9 12 9 7 4 4 7 7 13 11 10 11 11 11 11 10 9 8 6 5 5 6 6 5 6 6 6 7 7 7 6 8 8 7 7 8 12 13 13 12
7 6 4 4 5 10 11 7 13 13 5 5 5 5 3 7 10 10 12 13 14 14 12 12 12 11 9 8 6 4 3 1 0 3 4 5 5 5 8 10 10 11 12 14 17 17 14 12 12
4 3 3 5 15 7 14 13 14 10 6 4 6 8 7 6 8 9 13 13 11 11 11 15 15 13 11 8 7 5 4 2 2 2 4 4 4 6 7 9 10 12 13 14 12 12 11 11 11
2 4 8 11 13 12 11 13 6 6 6 6 1 6 7 4 8 14 12 12 11 14 16 16 14 12 10 6 4 3 3 4 4 3 3 4 5 5 6 6 7 8 8 9 10 11 12 13 13
5 4 12 13 14 11 9 7 4 5 5 6 7 7 6 7 13 13 12 13 13 13 15 13 11 9 7 5 4 4 4 5 5 4 4 4 5 5 5 6 6 7 6 7 7 8 9 10 11
8 6 13 15 15 12 8 3 3 5 5 5 5 6 7 11 13 12 12 13 15 12 11 10 8 6 6 4 4 4 4 3 2 1 1 2 3 4 5 5 6 6 6 6 6 7 7 7 8
7 8 13 13 10 13 6 5 5 4 5 5 3 5 8 14 15 13 14 13 12 11 8 7 5 3 3 4 5 4 3 2 2 2 2 3 5 6 7 6 5 6 7 8 8 8 8 9 9
4 6 10 9 9 9 9 7 4 2 7 3 3 4 8 18 16 15 14 12 10 9 9 8 4 1 3 4 5 3 3 3 3 4 4 4 3 5 6 8 8 8 9 10 10 10 11 11 12
0 7 7 4 6 10 8 3 6 5 6 5 6 5 12 18 17 15 14 13 12 11 9 6 3 0 3 4 5 4 3 2 3 3 5 4 6 7 8 11 11 12 13 13 13 13 12 12 10
3 8 9 7 8 7 8 7 4 5 6 6 7 9 16 17 16 14 12 10 10 10 8 7 4 1 3 3 3 3 3 3 4 6 6 7 9 8 8 8 10 10 14 11 14 15 11 12 12
12 11 9 8 6 5 6 4 5 6 8 4 4 8 16 17 15 14 12 12 11 11 10 8 6 1 1 2 3 3 3 5 5 6 9 8 8 9 9 9 11 12 10 14 14 13 16 16 16
14 10 7 6 6 3 2 3 1 4 3 2 6 10 14 13 13 12 12 12 12 11 10 9 8 6 2 2 5 4 3 4 5 7 8 9 8 9 9 10 11 11 12 12 12 12 12 13 15
6 8 5 4 6 4 4 3 4 5 4 2 6 10 13 13 13 13 15 14 13 11 10 10 9 8 5 3 5 5 4 4 5 6 7 9 9 9 10 11 11 11 12 12 13 13 15 14 16
9 9 7 6 5 4 3 8 5 4 4 4 4 9 13 13 13 14 13 12 10 10 10 11 11 11 8 6 7 5 4 3 4 5 8 9 11 12 13 12 13 12 13 17 16 16 17 17 16
7 5 4 7 1 1 7 8 6 8 9 9 7 7 12 16 15 11 10 11 11 12 13 14 15 13 11 8 8 7 5 5 4 4 7 8 10 11 14 14 14 14 17 16 16 16 16 16 16
3 3 2 6 4 5 4 4 10 12 7 7 9 10 11 13 15 12 11 11 12 13 14 16 17 15 12 11 9 8 6 4 3 4 9 11 12 13 15 18 19 18 18 18 18 19 19 19 19
3 3 2 2 5 7 3 4 8 11 7 6 3 1 2 7 11 11 8 11 13 14 17 15 11 13 15 13 11 9 9 9 11 12 14 16 18 19 21 24 25 23 22 23 22 23 22 23 22
2 1 2 1 3 8 2 4 9 11 13 15 15 14 12 10 6 2 8 13 11 10 8 5 5 11 14 11 9 7 8 10 11 12 16 18 18 22 28 30 30 29 25 26 27 26 27 26 25
1 2 1 1 1 5 1 7 9 12 14 14 16 17 18 17 14 14 12 9 5 2 3 4 7 10 11 11 13 15 15 14 16 14 14 16 25 32 34 34 32 27 26 26 27 28 28 30 28
0 1 3 5 4 3 5 7 6 7 12 13 14 14 14 14 13 13 12 10 7 4 2 1 3 6 9 9 6 7 8 10 11 19 23 31 35 33 30 30 30 31 30 25 26 26 27 31 29
2 2 8 7 6 3 3 4 5 6 9 12 12 14 13 11 10 10 10 9 8 7 7 6 6 7 9 9 11 16 15 17 24 23 24 36 36 34 30 28 27 28 26 26 26 25 26 26 32
4 7 5 3 6 4 7 6 7 7 7 8 12 15 15 12 10 9 10 11 11 10 9 9 9 10 13 15 19 28 27 26 22 35 34 24 22 24 24 26 33 33 29 26 27 25 24 25 28
4 4 1 1 2 5 3 4 8 3 3 7 10 12 13 13 13 12 11 10 10 10 11 11 11 11 18 22 24 28 23 20 18 20 22 23 26 26 25 25 31 30 29 25 23 18 13 13 16
7 4 2 3 4 1 4 6 9 7 6 8 9 10 10 11 11 10 9 9 9 11 12 13 14 15 17 19 20 16 16 17 19 21 22 28 30 29 28 28 24 17 17 17 16 17 15 16 15
5 6 3 3 2 1 2 4 5 7 9 9 8 7 6 6 5 7 8 9 10 10 12 14 15 16 16 16 17 21 24 21 21 22 27 29 29 27 23 18 12 10 8 8 9 15 17 16 12
2 2 2 0 1 3 1 4 9 9 6 4 6 5 2 0 4 8 10 11 12 13 13 16 19 20 19 18 19 18 19 22 23 25 29 29 28 21 17 11 8 8 10 14 12 14 13 11 9
4 3 3 0 3 4 2 5 6 16 12 2 2 4 2 1 7 11 13 13 14 14 14 15 16 17 17 17 18 18 18 20 22 25 26 24 19 12 7 8 9 10 15 14 9 5 6 7 9
1 2 1 1 2 3 4 5 3 2 6 3 3 4 4 5 9 11 11 11 13 14 15 14 15 17 17 18 19 19 20 21 21 21 19 16 9 8 13 14 15 17 15 13 11 11 11 11 11
1 1 0 2 2 2 4 8 4 4 5 2 5 6 7 7 10 10 11 12 15 16 14 15 16 18 19 20 20 21 22 20 18 17 13 10 7 15 18 18 17 19 14 14 13 13 12 12 14
Wind_Direction
151 145 133 158 202 162 129 107 114 122 124 56 74 334 45 23 360 36 140 106 120 131 136 141 136 128 109 109 110 104 125 150 165 177 196 201 215 223 232 232 245 246 220 198 223 275 300 291 278
153 154 134 214 175 139 114 128 129 92 103 102 96 100 69 68 67 115 127 133 130 131 130 135 132 121 111 106 116 122 139 149 158 178 192 209 217 229 237 238 243 247 241 238 256 279 290 278 264
156 154 217 163 151 117 122 137 121 116 124 164 122 70 72 83 112 122 138 132 127 137 138 138 127 125 121 113 111 111 100 87 187 211 208 217 233 237 238 243 254 257 260 267 278 282 283 273 265
160 173 178 163 109 79 116 123 133 135 118 118 116 97 90 97 121 138 140 131 125 129 127 129 123 115 106 93 74 56 39 9 304 316 315 302 286 275 279 276 271 267 260 257 266 276 270 271 267
177 218 134 114 98 114 116 121 131 132 119 115 176 102 92 117 135 139 140 135 137 134 129 120 116 107 97 86 66 27 344 318 306 306 314 315 304 291 289 288 286 283 280 277 281 282 280 275 273
169 209 137 122 115 118 115 120 127 105 110 93 101 110 89 133 139 144 141 139 133 130 126 122 122 113 92 67 31 346 309 290 283 287 302 322 326 329 325 317 310 306 305 302 292 283 278 276 276
123 106 105 121 123 127 117 114 168 116 125 108 117 112 131 145 153 145 140 143 139 138 137 136 117 92 70 40 13 356 360 358 331 304 315 330 326 330 326 310 303 305 308 306 303 297 291 292 293
107 113 132 126 136 120 124 152 146 162 129 132 147 135 158 164 157 148 147 146 148 144 147 132 117 97 50 4 5 5 26 35 26 27 0 344 337 338 333 321 321 314 316 320 321 316 312 309 307
122 145 126 127 152 137 147 159 158 164 151 172 166 119 127 164 158 154 153 159 160 156 136 138 131 94 0 350 339 353 0 11 17 2 347 347 355 337 343 318 319 318 316 317 313 310 308 307 304
286 121 96 103 119 136 139 159 137 183 156 157 163 139 147 164 166 168 168 171 170 168 156 157 149 217 341 331 316 317 309 344 356 351 355 355 326 315 311 308 310 308 310 313 312 310 304 299 295
73 104 130 126 123 143 139 155 178 183 171 133 145 158 165 172 181 181 178 178 176 184 179 194 203 312 4 306 311 294 285 296 314 325 329 320 321 314 311 302 306 305 304 306 310 309 304 297 296
115 106 110 132 144 161 162 150 190 201 97 101 148 160 167 179 186 190 183 185 181 183 185 207 217 237 41 27 344 291 281 284 296 301 314 317 322 310 308 301 298 305 300 300 305 300 298 300 301
113 119 120 140 150 121 140 182 342 201 209 204 179 170 179 177 182 185 188 188 183 185 197 216 240 243 255 351 357 349 320 290 283 305 307 312 304 300 303 299 303 297 297 300 298 297 296 295 298
110 115 129 150 147 99 232 158 246 96 39 189 202 199 191 191 185 188 196 193 195 202 216 225 241 242 262 301 332 329 334 309 310 300 305 327 321 307 306 304 300 298 294 293 291 288 288 284 286
137 139 130 83 138 57 296 191 151 43 342 251 215 210 206 201 195 195 191 193 200 217 226 235 250 252 265 286 295 297 295 303 304 313 338 340 335 330 323 308 304 300 291 300 296 290 289 288 280
168 208 205 78 248 72 311 146 101 339 313 262 210 213 215 214 208 201 203 210 222 230 241 248 253 250 257 274 289 294 298 313 312 347 13 356 343 328 320 307 300 301 299 292 287 284 280 279 274
178 122 71 147 42 332 343 340 8 343 308 248 241 248 235 221 211 210 222 233 244 249 252 262 261 248 252 268 277 292 299 305 297 306 314 316 316 312 309 304 297 296 290 285 282 280 276 276 276
156 183 155 323 47 340 352 33 23 27 55 65 67 171 211 206 208 220 237 254 257 260 263 260 243 239 245 256 268 275 277 272 278 284 290 297 301 302 303 303 299 294 286 282 278 275 275 273 272
85 285 308 48 86 322 11 82 59 62 65 73 73 80 86 98 109 95 244 256 261 260 259 240 223 235 243 254 265 275 278 278 287 295 293 299 305 313 311 306 301 293 284 283 278 273 271 270 267
269 286 57 63 113 298 326 108 81 65 65 64 71 72 82 87 81 73 70 71 87 130 205 228 235 248 254 268 278 281 285 294 304 321 321 323 313 311 307 305 301 294 288 281 278 275 270 268 264
104 339 11 304 295 208 207 120 119 82 75 74 69 72 67 59 55 52 52 53 51 52 47 354 291 282 287 303 333 342 331 328 322 321 322 315 312 312 309 306 304 299 293 285 280 276 270 271 265
276 40 309 281 256 224 218 152 107 118 92 75 61 51 43 42 44 43 45 40 29 23 16 10 11 8 355 350 343 340 342 332 324 326 321 316 313 311 311 309 305 300 293 287 284 280 274 268 267
26 319 316 289 247 249 189 259 99 165 105 76 49 42 38 41 50 55 61 59 55 49 40 31 18 355 344 340 331 325 320 312 310 310 302 307 310 312 310 307 308 303 296 291 287 284 277 271 268
323 264 219 190 202 229 140 291 154 148 94 85 63 51 50 57 65 71 69 60 43 31 17 7 0 348 335 332 332 317 312 318 317 318 317 315 314 313 310 306 306 301 295 295 295 291 291 283 265
335 293 240 219 205 295 139 261 65 124 90 71 68 63 67 74 75 62 38 20 10 5 357 349 342 339 334 330 325 324 322 323 325 325 322 320 318 313 310 305 303 295 295 296 290 291 291 290 281
4 344 354 292 286 302 176 225 171 131 102 89 80 78 77 72 51 17 360 355 347 341 336 336 334 330 327 324 317 317 316 319 319 319 320 318 314 309 304 301 292 293 302 311 302 302 299 286 287
40 29 3 204 230 260 178 131 154 159 134 97 78 59 63 125 350 349 341 333 330 326 322 328 326 323 320 315 310 310 311 314 317 319 320 319 317 306 301 295 297 286 268 287 290 297 303 327 326
354 100 241 84 298 281 229 234 290 198 206 133 64 17 25 312 333 329 327 328 328 327 319 319 322 316 313 311 312 312 313 314 314 319 321 320 317 304 290 274 286 270 266 273 296 292 293 301 308
195 193 50 13 319 298 305 303 71 209 184 232 327 296 288 284 312 314 311 313 325 325 323 322 322 325 321 316 315 315 311 314 317 319 318 324 324 273 258 267 273 293 315 325 325 316 308 305 301
309 119 229 262 205 234 295 278 127 200 187 234 298 259 273 287 311 321 321 321 324 323 325 326 330 329 327 323 317 314 314 315 318 321 320 319 305 305 291 286 304 328 327 321 308 297 292 294 294
Height
1518 1518 1519 1519 1516 1506 1521 1528 1522 1528 1528 1535 1535 1533 1533 1536 1535 1538 1551 1551 1553 1554 1556 1557 1557 1557 1559 1559 1561 1561 1561 1562 1561 1561 1563 1562 1562 1564 1564 1563 1564 1564 1563 1563 1563 1564 1564 1561 1561
1518 1518 1520 1517 1509 1515 1525 1524 1522 1526 1535 1537 1538 1538 1537 1542 1545 1548 1551 1550 1554 1555 1557 1557 1558 1558 1558 1560 1559 1560 1561 1562 1561 1562 1562 1563 1563 1563 1566 1563 1564 1563 1564 1562 1563 1564 1562 1560 1559
1519 1519 1517 1508 1504 1514 1524 1523 1527 1532 1536 1537 1538 1540 1540 1545 1548 1549 1552 1552 1552 1554 1556 1557 1559 1558 1559 1560 1563 1563 1563 1563 1562 1564 1562 1562 1563 1564 1564 1564 1564 1562 1562 1562 1562 1560 1559 1558 1557
1520 1521 1517 1507 1517 1524 1521 1525 1531 1533 1537 1538 1538 1540 1545 1548 1549 1551 1552 1554 1555 1558 1559 1557 1558 1560 1561 1563 1564 1565 1564 1563 1563 1562 1561 1561 1562 1563 1563 1563 1562 1561 1562 1561 1560 1558 1557 1556 1556
1520 1517 1510 1515 1524 1528 1524 1530 1532 1531 1534 1537 1539 1542 1546 1550 1550 1551 1554 1556 1557 1558 1559 1558 1561 1561 1561 1563 1563 1563 1564 1564 1563 1562 1561 1561 1561 1561 1561 1561 1560 1560 1560 1560 1559 1558 1557 1556 1555
1518 1513 1514 1522 1530 1530 1531 1534 1534 1534 1538 1540 1541 1543 1549 1551 1553 1554 1555 1557 1558 1560 1561 1560 1562 1562 1561 1564 1564 1565 1564 1563 1562 1561 1561 1561 1561 1560 1560 1559 1559 1559 1558 1557 1558 1557 1556 1555 1554
1514 1508 1518 1523 1531 1530 1533 1538 1536 1537 1539 1542 1544 1542 1550 1553 1555 1556 1558 1559 1558 1560 1562 1562 1563 1563 1562 1565 1563 1563 1563 1562 1561 1561 1560 1561 1560 1560 1559 1559 1559 1558 1557 1557 1556 1556 1555 1554 1553
1520 1517 1525 1524 1528 1535 1538 1540 1542 1541 1542 1544 1545 1542 1548 1553 1554 1556 1558 1559 1561 1560 1564 1564 1564 1565 1564 1564 1564 1563 1562 1562 1562 1561 1561 1561 1560 1559 1559 1559 1558 1557 1556 1555 1554 1554 1553 1552 1551
1521 1518 1526 1528 1528 1534 1539 1539 1544 1544 1544 1545 1546 1545 1547 1551 1553 1557 1558 1561 1563 1563 1563 1564 1565 1566 1566 1564 1565 1564 1563 1563 1562 1561 1562 1560 1561 1561 1560 1559 1558 1557 1556 1555 1554 1553 1551 1550 1550
1520 1519 1529 1533 1532 1533 1537 1537 1542 1543 1543 1544 1548 1546 1548 1550 1554 1557 1558 1561 1561 1562 1562 1565 1564 1565 1565 1564 1564 1563 1563 1563 1563 1563 1562 1562 1561 1560 1559 1558 1557 1556 1555 1554 1552 1551 1550 1549 1548
1525 1527 1533 1537 1536 1535 1535 1537 1541 1540 1539 1541 1542 1546 1549 1551 1555 1555 1558 1561 1560 1563 1564 1565 1565 1565 1565 1565 1565 1565 1564 1564 1563 1562 1562 1561 1560 1559 1559 1558 1556 1555 1553 1552 1550 1549 1548 1547 1546
1530 1532 1532 1537 1538 1538 1535 1538 1539 1539 1539 1541 1545 1546 1548 1551 1552 1555 1556 1560 1560 1562 1564 1564 1564 1565 1565 1565 1565 1565 1564 1564 1564 1563 1561 1560 1561 1560 1559 1559 1557 1554 1553 1551 1549 1548 1545 1544 1543
1528 1534 1535 1538 1539 1539 1540 1538 1539 1538 1539 1541 1544 1544 1547 1549 1551 1553 1556 1557 1559 1561 1564 1564 1563 1564 1565 1564 1563 1562 1561 1562 1562 1561 1560 1559 1559 1559 1557 1555 1554 1552 1551 1549 1547 1546 1545 1542 1540
1535 1534 1538 1539 1538 1540 1537 1537 1538 1539 1540 1541 1542 1544 1545 1547 1548 1551 1554 1555 1558 1561 1562 1563 1562 1563 1563 1562 1562 1561 1560 1560 1559 1559 1559 1557 1557 1556 1555 1554 1552 1550 1548 1547 1544 1543 1541 1539 1537
1535 1533 1536 1538 1538 1537 1538 1533 1533 1539 1538 1539 1540 1542 1543 1545 1546 1548 1552 1555 1558 1560 1560 1559 1560 1561 1561 1561 1560 1560 1559 1558 1558 1558 1557 1556 1555 1553 1552 1551 1550 1548 1546 1542 1540 1538 1536 1534 1532
1531 1530 1529 1538 1538 1538 1534 1528 1531 1537 1537 1536 1537 1539 1540 1542 1545 1549 1552 1555 1556 1556 1557 1557 1557 1559 1559 1559 1559 1558 1557 1557 1556 1556 1555 1554 1552 1551 1549 1548 1546 1545 1543 1541 1539 1537 1535 1532 1530
1527 1530 1535 1536 1539 1536 1534 1528 1533 1536 1534 1533 1534 1536 1538 1540 1544 1548 1550 1551 1553 1553 1554 1554 1555 1556 1557 1557 1556 1555 1555 1554 1554 1553 1552 1551 1549 1547 1546 1544 1541 1539 1538 1536 1533 1531 1530 1528 1527
1533 1534 1538 1536 1536 1535 1534 1533 1535 1536 1534 1534 1535 1535 1536 1538 1542 1547 1549 1549 1549 1550 1550 1551 1552 1553 1553 1554 1553 1553 1553 1552 1551 1550 1549 1547 1544 1542 1540 1538 1536 1534 1533 1531 1529 1526 1525 1523 1522
1534 1535 1535 1535 1539 1538 1536 1535 1537 1538 1536 1535 1536 1536 1538 1540 1544 1545 1544 1544 1545 1546 1547 1548 1550 1549 1550 1551 1551 1552 1551 1549 1548 1547 1544 1541 1539 1536 1535 1533 1531 1528 1526 1523 1522 1520 1518 1516 1515
1536 1536 1537 1538 1540 1541 1535 1535 1538 1540 1541 1541 1540 1541 1541 1543 1545 1545 1544 1543 1543 1544 1545 1546 1546 1547 1547 1548 1547 1547 1546 1545 1544 1542 1541 1538 1535 1533 1530 1527 1524 1521 1519 1517 1513 1511 1508 1507 1507
1537 1539 1542 1543 1539 1539 1535 1535 1537 1542 1543 1544 1544 1544 1545 1546 1546 1546 1546 1544 1544 1544 1545 1546 1546 1546 1545 1545 1545 1545 1545 1544 1543 1540 1537 1534 1531 1527 1524 1520 1517 1513 1509 1506 1505 1503 1501 1497 1497
1538 1543 1543 1541 1538 1528 1534 1528 1540 1540 1543 1545 1546 1546 1547 1547 1548 1548 1547 1546 1546 1546 1546 1546 1546 1546 1545 1545 1544 1543 1542 1540 1537 1533 1530 1526 1524 1520 1516 1512 1509 1506 1502 1499 1497 1495 1492 1490 1485
1543 1544 1542 1540 1535 1533 1530 1528 1538 1539 1544 1545 1548 1549 1550 1549 1549 1550 1549 1549 1549 1548 1548 1548 1547 1546 1544 1542 1540 1537 1535 1535 1531 1525 1522 1521 1518 1514 1511 1506 1501 1497 1494 1490 1487 1484 1483 1481 1479
1544 1541 1540 1538 1535 1539 1534 1535 1531 1536 1546 1546 1551 1552 1552 1552 1552 1552 1552 1552 1552 1551 1549 1548 1546 1544 1541 1538 1535 1532 1529 1527 1524 1519 1517 1515 1511 1507 1504 1499 1493 1489 1486 1482 1479 1475 1472 1471 1470
1537 1535 1537 1543 1541 1536 1539 1538 1537 1547 1550 1551 1551 1553 1554 1554 1553 1554 1554 1553 1552 1549 1548 1546 1543 1541 1537 1534 1531 1529 1525 1523 1518 1515 1512 1508 1504 1501 1496 1490 1486 1483 1479 1476 1473 1469 1467 1465 1464
1545 1544 1548 1556 1546 1538 1543 1533 1537 1549 1551 1553 1553 1554 1554 1555 1555 1554 1553 1552 1550 1548 1545 1543 1540 1538 1535 1532 1529 1524 1520 1517 1514 1511 1507 1503 1498 1493 1487 1482 1479 1477 1475 1471 1469 1467 1465 1463 1460
1546 1549 1552 1555 1562 1554 1534 1540 1546 1549 1551 1552 1553 1553 1554 1555 1554 1553 1552 1551 1548 1546 1543 1539 1536 1534 1531 1528 1524 1520 1517 1513 1509 1506 1501 1496 1490 1486 1482 1480 1478 1475 1472 1468 1466 1464 1461 1459 1457
1548 1553 1551 1549 1561 1556 1529 1534 1526 1543 1544 1550 1551 1551 1553 1553 1552 1551 1550 1548 1545 1542 1539 1536 1534 1531 1528 1524 1521 1516 1512 1508 1504 1499 1494 1488 1483 1480 1479 1477 1474 1470 1467 1465 1463 1461 1460 1458 1456
1551 1551 1553 1551 1557 1558 1557 1533 1532 1536 1540 1547 1549 1551 1551 1550 1549 1548 1547 1545 1543 1540 1537 1534 1531 1527 1524 1521 1516 1512 1508 1503 1498 1494 1490 1486 1481 1478 1475 1473 1470 1469 1465 1462 1461 1459 1458 1456 1455
1555 1554 1553 1557 1558 1558 1559 1546 1536 1538 1544 1548 1548 1548 1548 1548 1546 1545 1544 1541 1539 1537 1533 1531 1527 1523 1520 1516 1512 1507 1503 1498 1494 1489 1486 1483 1480 1476 1473 1471 1469 1466 1464 1461 1460 1458 1456 1454 1452